This demonstration page uses our WeatherBlox Daily Observations layout. Learn more.

Left ArrowRight Arrow

39.51506, -84.39828

Hourly Observations for March 19, 2015

Temp ( °F °C ) Dew Point ( °F °C ) Humidity (%) Winds ( mph kmh ) Pressure ( in mb ) Visibility ( mi km ) Precip ( " mm )
12:15 am 00:15 Clear 39 4 26 -3.1 60 60 NNE 3 6 30.27 1025 10 16 N/A
12:35 am 00:35 Clear 39 4 27 -2.6 62 62 N N/A 30.27 1025 10 16 N/A
12:55 am 00:55 Mostly Cloudy 39 4 28 -2.2 64 64 N N/A 30.27 1025 10 16 N/A
1:15 am 01:15 Cloudy 39 4 28 -2.1 65 65 N N/A 30.30 1026 10 16 N/A
1:35 am 01:35 Cloudy 39 4 28 -2.4 63 63 N N/A 30.27 1025 10 16 N/A
1:55 am 01:55 Cloudy 39 4 28 -2.5 63 63 N N/A 30.27 1025 10 16 N/A
2:15 am 02:15 Cloudy 39 4 29 -1.8 66 66 N N/A 30.27 1025 10 16 N/A
2:35 am 02:35 Cloudy 39 4 29 -1.9 66 66 N N/A 30.27 1025 10 16 N/A
2:55 am 02:55 Cloudy 39 4 29 -1.5 68 68 N N/A 30.27 1025 10 16 N/A
3:15 am 03:15 Cloudy 39 4 27 -2.6 62 62 N 3 6 30.27 1025 10 16 N/A
3:35 am 03:35 Cloudy 39 4 27 -2.9 61 61 N N/A 30.27 1025 10 16 N/A
3:55 am 03:55 Cloudy 39 4 27 -2.6 62 62 N N/A 30.27 1025 10 16 N/A
4:15 am 04:15 Mostly Cloudy 39 4 27 -2.6 62 62 NNE 3 6 30.27 1025 10 16 N/A
4:35 am 04:35 Cloudy 39 4 28 -2.1 65 65 N N/A 30.27 1025 10 16 N/A
4:55 am 04:55 Cloudy 39 4 29 -1.8 66 66 N 3 6 30.27 1025 10 16 N/A
5:15 am 05:15 Cloudy 39 4 27 -3 61 61 NNE 3 6 30.27 1025 10 16 N/A
5:35 am 05:35 Mostly Cloudy 39 4 27 -2.9 61 61 N N/A 30.27 1025 10 16 N/A
5:55 am 05:55 Partly Cloudy 39 4 28 -2.2 64 64 NNE 3 6 30.27 1025 10 16 N/A
6:15 am 06:15 Mostly Cloudy 39 3.9 30 -1.2 70 70 NNE 3 6 30.27 1025 10 16 N/A
6:35 am 06:35 Mostly Cloudy 39 4 30 -1.2 69 69 NNE 3 6 30.27 1025 10 16 N/A
6:55 am 06:55 Mostly Cloudy 39 4 28 -2 65 65 N N/A 30.27 1025 10 16 N/A
7:15 am 07:15 Partly Cloudy 39 4 29 -1.5 68 68 N N/A 30.27 1025 10 16 N/A
7:35 am 07:35 Mostly Cloudy 39 3.7 30 -1 72 72 N N/A 30.27 1025 10 16 N/A
7:55 am 07:55 Mostly Cloudy 39 4 28 -2 65 65 NE 5 7 30.27 1025 10 16 N/A
8:15 am 08:15 Mostly Cloudy 39 4 26 -3.1 60 60 NE 6 9 30.30 1026 10 16 N/A
8:35 am 08:35 Mostly Cloudy 40 4.7 25 -4 54 54 NE 5 7 30.30 1026 10 16 N/A
8:55 am 08:55 Cloudy 42 5.5 24 -4.5 49 49 ENE 9 15 30.30 1026 10 16 N/A
9:15 am 09:15 Cloudy 42 5.5 23 -4.8 48 48 ENE 8 13 30.30 1026 10 16 N/A
9:35 am 09:35 Cloudy 42 5.6 23 -5.2 46 46 ENE 9 15 30.30 1026 10 16 N/A
9:55 am 09:55 Cloudy 43 6.1 22 -5.3 44 44 ENE 13 20 30.30 1026 10 16 N/A
10:35 am 10:35 Partly Cloudy 44 6.8 22 -5.4 42 42 ENE 8 13 30.27 1025 10 16 N/A
10:55 am 10:55 Partly Cloudy 47 8.2 23 -4.8 40 40 E 8 13 30.27 1025 10 16 N/A
11:15 am 11:15 Mostly Cloudy 47 8.2 23 -5.1 39 39 E 12 19 30.27 1025 10 16 N/A
11:35 am 11:35 Mostly Cloudy 47 8.2 23 -5.1 39 39 ENE 9 15 30.27 1025 10 16 N/A
11:55 am 11:55 Partly Cloudy 49 9.6 24 -4.3 38 38 E 9 15 30.27 1025 10 16 N/A
12:15 pm 12:15 Sunny 49 9.6 24 -4.4 37 37 E 12 19 30.24 1024 10 16 N/A
12:35 pm 12:35 Sunny 49 9.6 23 -5.2 35 35 ESE 12 19 30.24 1024 10 16 N/A
12:55 pm 12:55 Sunny 49 9.7 22 -5.7 34 34 E 12 19 30.24 1024 10 16 N/A
1:15 pm 13:15 Sunny 49 9.6 21 -5.9 33 33 ESE 13 20 30.21 1023 10 16 N/A
1:35 pm 13:35 Sunny 53 11.8 24 -4.5 32 32 E 13 20 30.21 1023 10 16 N/A
1:55 pm 13:55 Sunny 52 11 23 -4.9 33 33 E 12 19 30.21 1023 10 16 N/A
2:15 pm 14:15 Sunny 52 11 22 -5.5 31 31 E 8 13 30.21 1023 10 16 N/A
2:35 pm 14:35 Sunny 52 11 23 -4.9 33 33 E 10 17 30.18 1022 10 16 N/A
2:55 pm 14:55 Sunny N/A N/A N/A E 10 17 N/A 10 16 N/A
3:15 pm 15:15 Sunny 50 9.9 21 -6 32 32 E 9 15 30.15 1021 10 16 N/A
3:35 pm 15:35 Sunny 51 10.3 21 -5.9 32 32 E 12 19 30.15 1021 10 16 N/A
3:55 pm 15:55 Sunny 51 10.3 21 -6.2 31 31 E 13 20 30.15 1021 10 16 N/A
4:15 pm 16:15 Sunny 51 10.5 22 -5.7 32 32 ENE 10 17 30.15 1021 10 16 N/A
4:35 pm 16:35 Sunny 51 10.3 21 -6 32 32 E 12 19 30.15 1021 10 16 N/A
4:55 pm 16:55 Mostly Cloudy 51 10.4 21 -5.9 32 32 ENE 8 13 30.15 1021 10 16 N/A
5:15 pm 17:15 Cloudy 51 10.4 20 -6.4 30 30 ENE 9 15 30.15 1021 10 16 N/A
5:35 pm 17:35 Cloudy N/A N/A N/A ENE 10 17 N/A 10 16 N/A
5:55 pm 17:55 Cloudy 52 11 22 -5.8 31 31 ENE 8 13 30.12 1020 10 16 N/A
6:15 pm 18:15 Cloudy 52 11 20 -6.6 29 29 E 10 17 30.12 1020 10 16 N/A
6:35 pm 18:35 Cloudy 51 10.3 19 -7.4 28 28 E 9 15 30.12 1020 10 16 N/A
6:55 pm 18:55 Cloudy 50 10 19 -7.4 29 29 E 6 9 30.12 1020 10 16 N/A
7:15 pm 19:15 Cloudy 49 9.7 18 -7.7 29 29 E 6 9 30.12 1020 10 16 N/A
7:35 pm 19:35 Cloudy 49 9.6 17 -8.1 28 28 E 5 7 30.12 1020 10 16 N/A
7:55 pm 19:55 Cloudy 49 9.6 22 -5.8 34 34 E 3 6 30.12 1020 10 16 N/A
8:15 pm 20:15 Cloudy 49 9.6 23 -5 36 36 ENE 6 9 30.12 1020 10 16 N/A
8:35 pm 20:35 Cloudy 49 9.6 23 -4.8 36 36 E 5 7 30.12 1020 10 16 N/A
8:55 pm 20:55 Cloudy with Light Snow 49 9.6 24 -4.2 38 38 E 7 11 30.12 1020 10 16 N/A
9:15 pm 21:15 Cloudy 49 9.6 29 -1.4 47 47 SSE 5 7 30.12 1020 10 16 N/A
9:35 pm 21:35 Cloudy 49 9.6 30 -0.9 48 48 N N/A 30.12 1020 10 16 N/A
9:55 pm 21:55 Cloudy with Light Snow 49 9.6 32 -0.1 51 51 N N/A 30.12 1020 10 16 N/A
10:15 pm 22:15 Cloudy 47 8.2 33 0.7 60 60 N N/A 30.12 1020 10 16 N/A
10:35 pm 22:35 Cloudy with Light Snow 44 6.8 36 2.3 73 73 NNE 3 6 30.12 1020 7 11 N/A
10:55 pm 22:55 Cloudy with Light Snow 43 6.2 37 2.6 78 78 NNE 3 6 30.12 1020 10 16 N/A
11:15 pm 23:15 Cloudy 43 6 38 3.3 83 83 NNE 3 6 30.12 1020 10 16 N/A
11:35 pm 23:35 Cloudy 43 6 38 3.1 82 82 N N/A 30.12 1020 10 16 N/A
11:55 pm 23:55 Cloudy 43 6.1 38 3.4 83 83 ENE 3 6 30.09 1019 10 16 N/A

Powered by AerisWeather